Location: Asheville, NC
(35.6000°N, 82.5500°W)
Time: 19:46:08
(UTC-04:00)

Vanguard 1 Rocket - Pass Details

Date: 10 March 2018
Orbit: 653 x 4224 km, 34.3° (Epoch: 23 June)

Event Time Altitude Azimuth Distance (km) Brightness Sun altitude
Rises 21:19:50 0° 269° (W) 4,822 12.0 -34.0°
Reaches altitude 10° 21:22:21 10° 269° (W) 4,160 11.4 -34.4°
Maximum altitude 21:34:37 86° 183° (S) 2,829 9.6 -36.7°
Enters shadow 21:39:56 59° 101° (E) 3,541 9.8 -37.7°
